Hourly Data Report for May 16, 2003

TORONTO CITY
ONTARIO

43°40'00.000" N
79°24'00.000" W
112.50 m
6158355
71508
XTO

Download Data

Hourly Data (May 2003)
Hourly Data Report for May 16, 2003
TIME
LST
Temp Definition
°C
Dew Point Definition
°C
Rel Hum Definition
%
Precip. Amount Definition
mm

Wind Dir Definition
10's deg

Wind Spd Definition
km/h
Visibility Definition
km
Stn Press Definition
kPa
Hmdx Definition


Wind Chill Definition


Weather Definition


00:00 12.6 10.2 85   LegendMM LegendMM LegendMM 100.50     LegendNANA
01:00 12.1 10.4 89   LegendMM LegendMM LegendMM 100.50     LegendNANA
02:00 10.9 10.0 94   LegendMM LegendMM LegendMM 100.53     LegendNANA
03:00 10.6 10.2 97   LegendMM LegendMM LegendMM 100.53     LegendNANA
04:00 10.2 9.9 98   LegendMM LegendMM LegendMM 100.56     LegendNANA
05:00 9.7 9.4 98   LegendMM LegendMM LegendMM 100.60     LegendNANA
06:00 9.8 9.4 97   LegendMM LegendMM LegendMM 100.68     LegendNANA
07:00 9.7 9.3 97   LegendMM LegendMM LegendMM 100.74     LegendNANA
08:00 9.6 9.3 98   LegendMM LegendMM LegendMM 100.80     LegendNANA
09:00 9.2 8.8 97   LegendMM LegendMM LegendMM 100.80     LegendNANA
10:00 9.0 8.7 98   LegendMM LegendMM LegendMM 100.84     LegendNANA
11:00 9.2 8.9 98   LegendMM LegendMM LegendMM 100.87     LegendNANA
12:00 9.3 8.9 97   LegendMM LegendMM LegendMM 100.89     LegendNANA
13:00 9.3 9.0 98   LegendMM LegendMM LegendMM 100.91     LegendNANA
14:00 9.3 9.0 98   LegendMM LegendMM LegendMM 100.95     LegendNANA
15:00 9.1 8.8 98   LegendMM LegendMM LegendMM 100.98     LegendNANA
16:00 9.3 9.0 98   LegendMM LegendMM LegendMM 101.01     LegendNANA
17:00 9.7 9.4 98   LegendMM LegendMM LegendMM 101.03     LegendNANA
18:00 9.5 9.2 98   LegendMM LegendMM LegendMM 101.03     LegendNANA
19:00 9.8 9.5 98   LegendMM LegendMM LegendMM 101.04     LegendNANA
20:00 10.2 9.9 98   LegendMM LegendMM LegendMM 101.06     LegendNANA
21:00 10.5 10.2 98   LegendMM LegendMM LegendMM 101.10     LegendNANA
22:00 10.6 10.2 97   LegendMM LegendMM LegendMM 101.11     LegendNANA
23:00 11.0 10.2 95   LegendMM LegendMM LegendMM 101.08     LegendNANA

Notes on Data Quality.

Legend

  • E = Estimated
  • M = Missing
  • NA = Not Available*
  • [empty] = Indicates an unobserved value
Date modified: